Temperature
16 16 16 17 17 17 17 17 16 16 16 15 15 14 14 14 14 14 14 14 13 13 13 12 12 12 12 12 12 11 11 11 10 10 10 10 10 10 10 10 10 11 11
15 16 16 16 16 16 16 16 16 16 16 16 15 15 15 14 14 14 14 13 13 13 12 12 12 12 12 12 11 11 11 11 10 10 9 9 10 10 11 11 11 11 11
15 15 15 15 16 16 16 16 16 16 16 16 15 15 14 13 13 13 13 13 13 13 13 12 12 12 12 12 11 11 11 11 10 10 10 9 10 10 11 11 11 11 11
14 14 15 15 15 15 15 16 16 16 16 15 15 15 14 14 14 14 14 14 13 13 13 12 12 12 12 12 11 11 11 11 10 10 10 10 11 10 10 11 11 11 11
14 14 14 14 14 14 15 15 15 15 15 15 15 15 14 14 14 14 13 13 13 13 13 12 12 12 12 12 11 11 11 11 10 10 10 10 10 10 10 10 11 11 11
13 14 14 14 14 14 14 14 15 15 15 15 14 14 14 14 14 13 13 13 13 12 12 12 12 12 12 11 11 11 11 11 10 10 10 10 10 10 10 10 10 11 11
13 13 13 13 13 14 14 14 14 14 14 14 14 14 14 14 13 13 13 13 12 12 12 12 12 12 12 11 11 11 11 10 10 10 10 10 10 10 10 10 10 10 10
12 12 13 13 13 13 13 13 13 13 13 14 14 14 14 13 13 13 13 12 12 12 12 12 12 11 11 11 11 11 10 10 10 10 10 9 10 9 9 10 10 9 9
12 12 12 12 12 12 13 13 13 13 13 13 13 13 13 13 13 13 12 12 12 12 12 11 11 11 11 11 10 10 10 10 10 9 9 9 9 9 9 9 9 9 9
12 12 12 12 12 12 12 12 12 12 12 12 12 13 13 13 13 12 12 12 12 12 11 11 11 11 11 10 10 10 10 9 9 9 9 9 9 9 9 9 9 9 8
11 11 11 11 11 11 11 11 11 12 12 12 12 12 12 12 12 12 12 12 11 11 11 11 10 10 10 10 10 10 9 9 9 9 8 8 8 8 8 8 8 8 8
11 11 11 11 11 11 11 11 11 11 11 11 11 11 11 12 12 11 11 11 11 11 11 10 10 10 10 10 9 9 9 9 9 9 8 8 8 8 8 8 8 8 8
10 10 10 10 10 10 10 10 10 10 10 10 10 11 11 11 11 11 11 11 10 10 10 10 9 9 9 9 9 9 9 9 8 8 8 8 8 8 8 8 8 8 8
9 9 9 9 9 9 9 9 9 9 10 10 10 10 10 10 10 10 10 10 10 9 9 9 9 9 9 9 9 9 9 8 8 8 8 8 8 8 8 7 7 7 7
9 9 9 8 8 8 8 9 9 9 9 9 9 9 9 9 9 9 9 9 9 9 9 9 9 9 9 8 8 8 8 8 8 8 8 8 8 8 7 7 7 7 7
8 8 8 8 8 8 8 8 8 8 8 8 8 8 8 8 8 8 8 8 8 8 8 8 8 8 8 8 8 8 8 8 8 8 8 7 7 7 7 7 7 7 7
7 7 7 7 7 7 7 7 7 7 7 7 7 7 7 7 8 8 8 8 8 8 8 8 8 8 8 8 8 8 8 8 8 7 7 7 7 7 7 7 7 6 6
7 7 6 6 6 6 6 6 6 6 6 6 6 6 6 7 7 7 7 7 7 7 7 7 7 7 8 8 8 7 7 7 7 7 7 7 7 7 6 6 6 6 6
6 6 6 5 5 5 5 5 5 5 5 6 5 5 5 6 6 6 6 6 6 6 6 6 7 7 7 7 7 7 7 6 7 7 6 6 6 6 6 6 5 6 6
6 5 5 5 5 5 4 4 4 5 5 5 5 5 5 5 5 5 5 5 5 5 6 6 6 6 6 6 6 6 6 6 6 6 6 5 5 5 5 5 5 5 5
5 5 4 4 4 4 4 4 4 4 4 4 4 4 4 4 4 4 4 4 5 5 5 5 5 5 5 5 5 5 5 5 5 5 5 5 5 5 5 4 4 4 4
4 4 3 3 3 3 3 3 3 3 3 3 3 3 4 3 3 3 4 4 4 4 4 4 4 4 4 4 5 4 4 5 5 5 4 4 4 4 4 4 4 3 3
3 3 3 3 3 2 2 2 2 2 2 2 3 3 3 3 3 3 3 3 3 3 3 3 3 3 3 4 4 4 4 4 4 4 4 4 3 3 3 3 3 3 3
2 2 2 2 2 2 1 1 1 1 2 2 2 2 2 2 2 2 2 2 2 2 2 2 3 3 3 3 3 3 3 3 3 3 3 3 3 3 2 2 2 2 2
1 1 1 1 1 1 1 0 0 1 1 1 1 1 1 1 1 1 1 1 1 1 1 2 2 2 2 2 2 2 2 2 2 2 2 2 2 2 2 2 1 1 1
1 0 0 -0 -0 -0 -0 -0 -1 -0 -0 0 0 -0 0 0 0 0 0 0 0 0 1 1 1 1 1 1 1 1 2 2 2 2 2 1 1 1 1 1 1 1 0
Wind_Speed
8 6 5 4 5 6 7 9 10 10 9 8 9 10 11 10 10 11 12 15 14 15 13 11 10 11 11 11 11 9 9 8 5 3 3 4 6 8 8 8 8 10 13
6 5 5 4 4 5 7 8 10 10 10 10 11 10 10 9 9 9 11 14 14 15 14 13 11 11 10 11 11 8 7 7 7 5 3 3 4 7 9 8 9 10 9
6 5 4 4 4 5 6 7 8 9 10 10 7 5 4 4 6 8 10 13 15 15 14 14 12 12 11 11 13 11 11 9 8 7 6 5 7 4 4 8 10 10 9
4 4 3 3 3 5 5 5 7 8 8 9 9 10 10 10 12 11 11 11 13 14 15 14 14 13 11 11 12 12 10 9 8 7 7 6 4 4 4 4 6 9 10
4 4 3 3 4 4 4 4 5 6 6 8 10 12 12 11 9 8 9 11 12 13 14 14 13 13 12 12 12 12 11 10 9 8 5 6 5 4 4 5 4 5 7
4 4 4 3 4 4 4 4 4 6 6 7 9 10 12 11 9 9 10 10 9 11 13 14 13 14 12 13 13 13 13 12 11 9 7 6 5 6 6 7 6 6 6
3 4 5 5 5 5 5 4 4 6 6 7 8 9 11 12 13 12 12 10 9 10 13 14 14 13 13 13 12 13 13 14 12 12 11 10 9 4 6 7 6 6 5
3 5 5 5 5 5 5 5 5 6 6 6 7 8 9 9 10 11 10 11 11 11 11 14 14 14 14 13 13 12 13 12 14 14 13 10 10 8 6 6 6 6 5
5 6 6 6 6 6 6 6 6 6 6 6 6 7 7 8 9 10 11 10 10 9 10 12 14 14 14 14 13 12 14 13 14 14 13 12 10 8 8 7 7 8 8
6 7 7 6 6 6 6 6 5 5 6 6 6 5 6 8 8 8 10 10 10 10 10 12 13 13 14 14 14 12 12 13 13 11 13 13 11 9 8 9 8 9 10
8 8 8 7 7 6 5 5 5 5 5 5 5 5 5 6 6 7 9 10 10 10 11 12 13 14 14 14 14 14 13 15 14 13 14 15 12 10 9 8 8 9 9
8 8 7 7 6 6 6 5 5 5 5 5 5 5 5 5 6 7 8 9 10 11 11 11 12 13 14 14 15 15 14 15 15 15 14 14 11 12 10 9 10 9 9
9 8 7 6 6 6 6 5 5 5 5 5 5 5 5 6 7 8 8 8 8 9 9 10 12 13 14 14 15 15 14 15 15 14 14 14 13 14 11 10 10 9 8
8 8 7 6 6 6 5 5 6 5 5 5 5 5 6 6 7 8 8 7 7 8 8 9 10 11 12 13 13 13 14 14 13 13 13 13 13 14 12 11 11 9 8
8 7 6 6 6 6 6 5 6 6 5 5 5 6 6 6 6 6 6 6 6 7 8 8 8 9 9 10 11 12 12 13 12 11 11 11 12 13 11 9 9 9 9
8 7 7 6 6 6 6 6 6 6 6 5 5 6 6 6 6 6 5 5 5 6 6 7 7 8 8 9 11 11 10 11 11 10 9 9 10 11 12 12 11 11 10
7 7 7 6 6 6 6 6 6 6 6 6 6 6 6 6 6 5 4 5 5 5 5 6 7 7 8 8 9 10 10 9 9 9 8 7 7 9 8 9 10 10 11
6 6 6 6 6 6 6 6 6 6 5 6 6 7 7 6 6 5 5 4 4 4 4 5 5 6 6 6 6 8 8 6 7 7 7 7 6 7 7 7 7 7 7
6 6 6 6 6 6 6 6 6 5 6 6 7 7 7 6 5 5 5 5 4 4 4 4 5 5 5 4 5 4 5 5 5 5 5 6 6 7 8 7 7 6 4
5 5 5 5 5 6 5 5 6 6 7 7 7 6 5 5 5 5 5 5 4 4 4 4 4 4 4 4 4 5 4 4 4 3 4 6 6 7 8 7 6 6 4
6 5 4 5 5 5 5 6 6 7 8 7 6 6 5 5 4 4 4 4 4 3 3 3 3 3 3 3 4 4 3 4 4 3 3 4 6 7 9 8 6 6 5
6 5 4 5 5 5 4 6 7 8 8 6 6 6 5 4 4 4 4 4 3 3 3 2 3 2 2 2 3 4 4 3 3 4 3 4 6 7 7 6 5 6 6
6 5 5 6 6 5 5 6 7 8 8 6 5 5 5 5 4 4 4 4 3 3 3 2 2 2 2 1 2 2 3 3 2 2 4 5 7 7 5 6 6 6 4
5 5 5 6 7 6 6 6 7 7 7 6 5 5 5 5 5 4 3 3 3 3 3 3 3 3 2 1 1 1 1 1 1 1 2 4 5 4 4 4 4 3 3
5 4 4 5 7 6 6 7 7 6 6 6 5 4 4 5 5 4 4 4 3 3 3 3 3 3 3 3 3 1 1 1 2 2 1 2 2 3 2 2 3 3 3
5 5 5 6 6 6 7 7 6 6 6 6 5 4 4 4 4 4 5 5 5 7 6 5 4 3 4 3 2 1 0 2 5 3 2 2 2 3 4 3 3 3 3
Wind_Direction
256 257 257 255 243 231 220 215 211 209 202 200 201 204 211 212 212 211 207 204 204 203 203 208 207 205 205 206 202 199 203 211 189 188 240 261 242 235 231 224 222 223 221
268 275 276 272 252 237 225 220 216 210 204 204 206 208 209 211 214 213 210 206 205 204 205 207 208 208 209 206 203 200 202 208 189 179 182 249 268 246 233 225 225 226 222
262 280 287 283 268 254 239 227 223 218 212 209 202 200 200 204 209 215 214 211 209 207 206 208 207 207 207 212 210 204 202 211 205 194 187 200 230 248 246 227 226 225 223
256 273 289 296 276 260 256 244 229 223 218 208 200 195 204 213 216 216 215 214 210 209 209 209 207 208 210 212 212 210 209 202 210 214 219 217 190 202 249 255 232 226 227
259 271 280 281 280 271 264 256 247 232 223 216 211 207 215 221 221 218 214 215 213 212 211 210 209 210 213 214 212 211 210 210 210 209 212 225 231 222 218 251 244 237 233
279 284 295 311 308 300 296 283 262 246 230 220 218 213 220 225 222 220 218 217 218 215 213 213 212 212 214 216 215 214 212 215 216 215 212 207 211 215 214 233 241 241 241
276 290 302 309 306 305 303 299 278 258 243 232 229 222 222 224 223 222 221 219 219 219 215 214 215 216 217 217 216 216 216 216 216 218 222 223 227 215 210 224 238 246 250
290 291 291 291 291 292 288 286 279 267 254 245 244 240 228 226 229 227 227 222 222 221 218 215 216 218 218 219 218 220 220 218 220 223 223 227 230 223 218 216 219 244 251
312 304 302 305 301 296 284 275 272 272 261 250 245 247 238 231 234 232 230 227 226 224 218 220 220 220 220 220 219 224 223 221 222 224 224 229 232 229 228 225 217 222 245
306 304 300 300 297 289 286 291 285 274 265 257 248 252 244 240 237 235 236 230 226 224 220 224 224 222 221 221 221 226 225 224 225 225 226 230 233 231 228 228 230 226 233
301 298 297 297 300 300 291 288 291 293 286 276 267 267 262 252 243 239 239 239 233 226 225 225 226 223 223 222 223 227 224 225 228 226 227 231 229 229 229 228 228 231 228
304 303 303 309 312 309 304 296 295 298 294 285 283 280 276 272 257 249 244 242 240 231 227 228 229 227 224 222 223 227 225 225 228 229 228 231 229 229 228 227 227 231 229
312 317 321 319 314 306 303 301 300 297 295 293 290 289 286 279 266 256 252 244 241 240 231 227 230 230 227 224 223 224 225 225 228 228 229 231 227 230 229 227 229 229 231
310 314 317 317 316 314 311 309 308 307 306 305 302 294 285 281 277 265 255 250 246 242 238 234 232 231 231 229 226 223 225 227 228 230 230 230 227 230 228 227 228 225 226
310 311 314 317 319 319 320 321 318 318 316 314 311 300 294 291 290 279 267 261 256 249 241 237 237 233 232 234 232 224 224 225 228 229 230 229 227 228 227 226 224 219 223
303 307 310 314 316 315 319 322 323 322 323 320 311 312 307 304 299 286 277 271 269 261 249 240 237 237 241 243 234 227 223 223 223 227 229 227 224 223 221 223 221 217 219
301 308 309 306 306 308 311 314 316 319 321 318 319 322 317 310 305 304 297 281 274 272 261 250 241 243 248 247 234 225 222 221 221 221 222 225 225 220 221 221 220 218 216
293 298 304 308 309 309 309 309 314 317 318 318 320 322 321 316 315 315 309 302 293 280 270 265 257 252 256 246 234 224 224 224 222 220 219 218 219 217 210 212 218 225 225
274 278 284 293 304 311 313 314 314 316 319 319 318 317 318 316 318 315 312 308 306 294 280 274 265 258 268 253 227 218 220 224 225 221 216 217 219 213 196 198 208 218 230
281 287 292 297 302 306 315 319 317 321 316 311 309 312 315 314 312 313 312 310 304 294 290 283 274 261 266 260 230 214 215 219 224 221 216 217 216 202 190 196 199 211 218
291 297 301 301 301 309 320 320 320 316 309 310 313 320 324 321 315 317 312 310 309 305 297 289 289 279 273 258 230 217 214 213 214 213 216 217 205 197 191 193 201 204 183
308 310 310 306 310 318 323 319 316 313 312 315 321 327 328 327 329 321 319 319 317 307 305 306 311 307 296 275 244 230 227 216 211 217 213 207 190 188 187 192 188 161 143
296 300 299 304 314 321 322 316 316 320 319 319 322 325 331 334 331 324 321 320 318 312 314 320 316 320 330 307 288 259 237 231 220 214 200 185 177 175 180 177 164 149 146
292 301 308 311 315 322 322 312 314 318 318 318 321 326 331 331 332 330 323 318 314 315 314 317 319 321 328 328 309 262 250 252 220 150 155 161 155 145 140 146 151 150 151
293 300 300 301 307 317 318 319 321 324 323 318 317 322 326 324 327 330 324 315 309 304 300 295 293 300 303 308 312 304 247 205 177 137 104 108 124 128 127 123 126 128 130
291 298 299 303 307 313 314 318 322 326 323 319 320 320 319 321 323 324 332 343 332 332 328 322 314 308 311 319 331 341 320 149 149 137 140 147 152 153 152 146 139 137 140
Height
1434 1435 1435 1435 1435 1435 1435 1436 1437 1438 1440 1441 1442 1444 1445 1446 1448 1449 1451 1454 1456 1458 1460 1462 1464 1466 1467 1468 1470 1473 1475 1477 1480 1482 1482 1483 1483 1483 1484 1485 1485 1486 1487
1430 1430 1430 1430 1430 1430 1430 1431 1431 1432 1434 1434 1436 1437 1439 1440 1442 1443 1445 1447 1449 1451 1453 1455 1457 1459 1461 1463 1465 1467 1469 1471 1474 1476 1477 1477 1478 1476 1477 1478 1478 1479 1480
1426 1426 1426 1426 1426 1426 1426 1426 1426 1427 1428 1429 1431 1433 1434 1436 1437 1438 1439 1440 1443 1445 1447 1449 1451 1453 1455 1456 1458 1461 1462 1464 1467 1469 1471 1471 1468 1469 1469 1470 1471 1472 1473
1424 1424 1423 1422 1422 1422 1422 1421 1422 1422 1422 1424 1425 1425 1426 1427 1428 1430 1431 1433 1436 1438 1440 1442 1444 1446 1448 1449 1452 1454 1456 1458 1459 1462 1463 1464 1463 1464 1462 1463 1464 1466 1467
1421 1421 1420 1420 1419 1418 1418 1417 1417 1417 1418 1418 1419 1419 1420 1421 1423 1424 1425 1427 1429 1430 1433 1435 1437 1439 1441 1443 1445 1447 1449 1451 1452 1453 1455 1456 1457 1458 1458 1457 1458 1459 1460
1419 1418 1418 1417 1416 1415 1414 1413 1412 1412 1412 1412 1413 1414 1414 1416 1417 1417 1418 1420 1422 1423 1425 1428 1430 1431 1433 1435 1437 1439 1441 1443 1444 1446 1447 1448 1449 1449 1450 1450 1450 1451 1453
1417 1416 1415 1414 1412 1411 1410 1409 1409 1408 1407 1407 1407 1407 1408 1409 1410 1411 1412 1412 1414 1415 1417 1419 1421 1423 1425 1427 1430 1432 1433 1435 1436 1438 1439 1440 1442 1443 1444 1445 1444 1445 1446
1414 1414 1413 1411 1410 1408 1407 1406 1405 1404 1403 1402 1402 1402 1402 1403 1404 1405 1405 1406 1407 1408 1410 1411 1413 1415 1417 1420 1422 1423 1425 1427 1428 1429 1431 1432 1434 1436 1437 1438 1439 1438 1438
1412 1411 1410 1408 1407 1405 1403 1402 1400 1399 1398 1398 1397 1396 1397 1397 1397 1398 1399 1399 1400 1402 1403 1404 1405 1407 1409 1412 1413 1414 1416 1418 1419 1421 1423 1424 1426 1428 1429 1431 1432 1433 1431
1411 1410 1408 1405 1403 1402 1400 1398 1396 1395 1394 1393 1392 1391 1390 1390 1390 1391 1391 1392 1393 1394 1395 1396 1398 1399 1401 1403 1405 1406 1407 1409 1410 1412 1414 1415 1417 1419 1421 1422 1424 1425 1425
1409 1407 1404 1402 1400 1398 1396 1394 1392 1390 1389 1388 1386 1385 1384 1384 1384 1383 1383 1384 1385 1387 1387 1388 1389 1391 1392 1394 1396 1397 1399 1400 1402 1403 1405 1406 1408 1410 1412 1413 1415 1415 1416
1407 1404 1401 1398 1396 1393 1392 1389 1387 1385 1384 1383 1381 1380 1379 1378 1377 1376 1376 1377 1378 1378 1379 1380 1381 1382 1383 1385 1386 1388 1390 1391 1392 1394 1396 1397 1399 1401 1403 1404 1405 1407 1408
1404 1400 1397 1394 1392 1390 1387 1385 1383 1381 1379 1377 1376 1374 1373 1372 1371 1370 1370 1369 1369 1370 1371 1371 1372 1373 1374 1376 1377 1379 1381 1382 1384 1386 1387 1388 1391 1392 1394 1395 1397 1398 1400
1401 1397 1394 1391 1388 1386 1384 1381 1379 1376 1374 1372 1370 1368 1367 1366 1365 1363 1363 1362 1362 1362 1362 1363 1364 1365 1366 1367 1369 1371 1372 1374 1376 1377 1379 1381 1382 1383 1385 1387 1388 1391 1392
1397 1394 1391 1388 1385 1383 1380 1377 1375 1373 1370 1368 1365 1363 1361 1360 1358 1357 1355 1355 1354 1355 1355 1355 1356 1357 1358 1359 1360 1362 1364 1366 1367 1369 1371 1372 1374 1375 1377 1379 1380 1382 1384
1394 1392 1389 1386 1383 1380 1377 1374 1371 1369 1366 1363 1361 1359 1357 1354 1352 1350 1349 1349 1348 1348 1348 1348 1349 1349 1350 1351 1352 1354 1356 1358 1359 1361 1363 1364 1366 1367 1369 1371 1372 1374 1376
1391 1389 1387 1384 1380 1377 1374 1371 1368 1365 1362 1359 1356 1354 1352 1349 1347 1345 1344 1343 1342 1342 1342 1341 1341 1341 1342 1344 1345 1347 1348 1350 1352 1353 1355 1357 1358 1360 1361 1362 1364 1366 1367
1389 1386 1384 1381 1378 1374 1371 1368 1365 1362 1358 1355 1352 1350 1347 1344 1342 1340 1338 1337 1336 1335 1335 1335 1335 1335 1336 1337 1339 1340 1342 1342 1344 1346 1348 1349 1350 1352 1354 1355 1356 1357 1359
1386 1383 1380 1377 1374 1371 1368 1364 1361 1358 1354 1351 1348 1346 1343 1340 1338 1336 1334 1333 1331 1330 1329 1329 1329 1329 1329 1331 1332 1334 1335 1335 1336 1339 1341 1342 1344 1345 1347 1348 1349 1349 1351
1382 1379 1376 1373 1370 1367 1363 1360 1357 1354 1350 1348 1345 1342 1339 1337 1335 1332 1331 1329 1328 1326 1325 1324 1324 1323 1324 1325 1327 1328 1329 1330 1331 1332 1334 1336 1337 1338 1340 1341 1342 1343 1344
1378 1375 1372 1369 1366 1363 1359 1356 1353 1350 1347 1344 1341 1338 1335 1333 1331 1329 1328 1326 1324 1323 1321 1320 1320 1319 1319 1320 1321 1323 1323 1324 1325 1326 1328 1329 1331 1332 1334 1336 1336 1337 1339
1374 1371 1368 1365 1362 1359 1356 1352 1349 1346 1343 1340 1337 1334 1332 1330 1328 1326 1324 1323 1321 1319 1318 1317 1315 1315 1315 1316 1316 1317 1319 1320 1321 1321 1323 1324 1326 1327 1329 1330 1332 1333 1334
1369 1367 1364 1361 1358 1355 1352 1349 1345 1343 1340 1336 1333 1331 1328 1326 1324 1323 1321 1319 1318 1316 1314 1313 1312 1311 1312 1312 1313 1314 1314 1315 1316 1317 1319 1320 1321 1323 1324 1326 1327 1328 1329
1365 1362 1359 1356 1353 1351 1348 1345 1342 1339 1336 1333 1330 1328 1325 1323 1321 1319 1318 1316 1315 1313 1311 1310 1309 1308 1309 1309 1309 1310 1310 1311 1312 1313 1314 1316 1317 1318 1320 1321 1322 1324 1325
1360 1358 1355 1352 1349 1346 1343 1341 1338 1335 1332 1329 1327 1324 1322 1320 1318 1316 1315 1313 1312 1311 1309 1308 1307 1306 1305 1306 1307 1307 1307 1307 1309 1310 1311 1311 1312 1313 1315 1316 1318 1320 1322
1355 1353 1351 1348 1345 1342 1339 1337 1334 1332 1329 1326 1324 1321 1319 1318 1316 1313 1312 1311 1310 1308 1307 1306 1306 1304 1304 1304 1303 1303 1304 1304 1305 1306 1306 1307 1308 1310 1311 1313 1315 1317 1318